• Join FlightAware (Why Join?)
  • Login
  • US Flag 
02:17PM EDT


 

Airport Tracker/Info


-or-


 

Live Flight TrackerFlight Track Log ✈ FLG4322 ✈ 19-Apr-2013 ✈ KSTL - KMEM

Flight Track Log - Related Links

Times and Time Zones

All times are in EDT time to prevent confusion due to time zone crossing. See the FLG4322 flight status page for this flight to view local times or setup timezone preferences in your user account.

Time Position Orientation Groundspeed Altitude Reporting Facility
EDT Latitude Longitude Course Direction KTS MPH feet Rate Location/Type
01:23PM 38.7564 -90.3561 184° South 165 190 1,300  Level FAA TRACON SMA TRACON (SMA)
01:23PM 38.7667 -90.3744 306° West 164 189 2,500 2,580 Climbing FAA TRACON SMA TRACON (SMA)
01:24PM 38.7753 -90.3925 301° West 184 212 3,000 1,620 Climbing FAA TRACON SMA TRACON (SMA)
01:24PM 38.7750 -90.4156 269° West 219 252 3,600 2,880 Climbing FAA TRACON SMA TRACON (SMA)
01:24PM 38.7561 -90.4367 221° Southwest 245 282 5,000 3,120 Climbing FAA TRACON SMA TRACON (SMA)
01:25PM 38.7356 -90.4475 202° Southwest 257 296 5,700 1,380 Climbing FAA TRACON SMA TRACON (SMA)
01:25PM 38.7147 -90.4581 202° Southwest 260 299 5,900 420 Climbing FAA TRACON SMA TRACON (SMA)
01:25PM 38.6883 -90.4714 202° Southwest 264 304 6,000 1,620 Climbing FAA TRACON SMA TRACON (SMA)
01:26PM 38.7127 -90.4892 184° South  Level FlightAware Approximate
01:26PM 38.6672 -90.4825 202° Southwest 266 306 7,000  Level FAA TRACON SMA TRACON (SMA)
01:26PM 38.6406 -90.4950 200° South 267 307 8,100 2,820 Climbing FAA TRACON SMA TRACON (SMA)
01:26PM 38.6164 -90.4981 186° South 282 325 8,900 2,400 Climbing FAA TRACON SMA TRACON (SMA)
01:27PM 38.6197 -90.4970 184° South  Level FlightAware Approximate
01:27PM 38.5908 -90.4986 181° South 291 335 9,700  Level FAA TRACON SMA TRACON (SMA)
01:27PM 38.5594 -90.4994 181° South 294 338 10,600 2,100 Climbing FAA TRACON SMA TRACON (SMA)
01:27PM 38.5336 -90.4989 179° South 301 346 11,100 1,500 Climbing FAA TRACON SMA TRACON (SMA)
01:28PM 38.5267 -90.5057 184° South  Level FlightAware Approximate
01:28PM 38.5058 -90.4997 181° South 314 361 11,600  Level FAA TRACON SMA TRACON (SMA)
01:28PM 38.4706 -90.5003 181° South 330 380 12,100 1,500 Climbing FAA TRACON SMA TRACON (SMA)
01:28PM 38.4411 -90.5003 180° South 340 391 12,600 1,500 Climbing FAA TRACON SMA TRACON (SMA)
01:29PM 38.4108 -90.5006 180° South 349 402 13,100 1,620 Climbing FAA TRACON SMA TRACON (SMA)
01:29PM 38.3728 -90.5008 180° South 355 409 13,700 1,500 Climbing FAA TRACON SMA TRACON (SMA)
01:29PM 38.3414 -90.5003 179° South 362 417 14,100 1,440 Climbing FAA TRACON SMA TRACON (SMA)
01:30PM 38.2700 -90.5022 181° South 372 428 15,200 1,500 Climbing FAA TRACON SMA TRACON (SMA)
01:30PM 38.2375 -90.5006 178° South 377 434 15,600 1,380 Climbing FAA TRACON SMA TRACON (SMA)
01:31PM 38.2053 -90.5022 182° South 377 434 16,100 1,560 Climbing FAA TRACON SMA TRACON (SMA)
01:31PM 38.1644 -90.5033 181° South 380 437 16,700 1,500 Climbing FAA TRACON SMA TRACON (SMA)
01:31PM 38.1322 -90.5100 189° South 381 438 17,100 1,380 Climbing FAA TRACON SMA TRACON (SMA)
01:32PM 38.1000 -90.5136 185° South 381 438 17,600 1,800 Climbing FAA TRACON SMA TRACON (SMA)
01:32PM 38.0586 -90.5175 184° South 383 441 18,300 1,620 Climbing FAA TRACON SMA TRACON (SMA)
01:32PM 38.0258 -90.5203 184° South 385 443 18,700 1,260 Climbing FAA TRACON SMA TRACON (SMA)
01:33PM 37.9933 -90.5253 187° South 383 441 19,200 1,560 Climbing FAA TRACON SMA TRACON (SMA)
01:33PM 37.9519 -90.5289 184° South 384 442 19,800 1,500 Climbing FAA TRACON SMA TRACON (SMA)
01:33PM 37.9192 -90.5317 184° South 384 442 20,200 1,260 Climbing FAA TRACON SMA TRACON (SMA)
01:34PM 37.8864 -90.5342 183° South 384 442 20,700 1,560 Climbing FAA TRACON SMA TRACON (SMA)
01:34PM 37.8467 -90.5431 190° South 380 437 21,300 1,500 Climbing FAA TRACON SMA TRACON (SMA)
01:34PM 37.8139 -90.5428 180° South 377 434 21,700 1,320 Climbing FAA TRACON SMA TRACON (SMA)
01:35PM 37.7581 -90.5508 187° South 374 430 22,600 1,260 Climbing FAA TRACON SMA TRACON (SMA)
01:35PM 37.7125 -90.6083 225° Southwest 377 434 23,200 1,020 Climbing Kansas City Center
01:37PM 37.6092 -90.6208 185° South 374 430 24,200 1,020 Climbing Kansas City Center
01:38PM 37.4839 -90.6347 185° South 375 432 25,400 840 Climbing Kansas City Center
01:39PM 37.3797 -90.6444 184° South 376 433 26,000 240 Climbing Kansas City Center
01:40PM 37.2758 -90.6553 185° South 376 433 26,000  Level Kansas City Center
01:41PM 37.1628 -90.6797 190° South 408 470 26,000  Level Memphis Center
01:42PM 37.0544 -90.7078 192° South 408 470 26,000  Level Memphis Center
01:43PM 36.9439 -90.7383 192° South 408 470 26,000  Level Memphis Center
01:44PM 36.8333 -90.7664 191° South 413 475 26,000  Level Memphis Center
01:45PM 36.7206 -90.7944 191° South 413 475 26,000  Level Memphis Center
01:46PM 36.6100 -90.8247 192° South 413 475 26,000  Level Memphis Center
01:47PM 36.4975 -90.8553 192° South 413 475 26,000  Level Memphis Center
01:48PM 36.3869 -90.8828 191° South 413 475 26,000  Level Memphis Center
01:49PM 36.2783 -90.9131 193° South 413 475 26,000  Level Memphis Center
01:50PM 36.1678 -90.9406 191° South 413 475 26,000 -1,500 Level Memphis Center
01:51PM 36.0633 -90.9450 182° South 399 459 23,000 -2,460 Descending Memphis Center
01:52PM 35.9592 -90.9186 168° South 383 441 21,100 -2,040 Descending Memphis Center
01:53PM 35.8553 -90.8922 168° South 383 441 19,000 -1,980 Descending Memphis Center
01:54PM 35.7594 -90.8661 168° South 383 441 17,200 -1,800 Descending Memphis Center
01:55PM 35.6656 -90.8425 168° South 362 417 15,500 -1,800 Descending Memphis Center
01:56PM 35.5697 -90.8164 168° South 351 404 13,600 -1,860 Descending Memphis Center
01:57PM 35.4739 -90.7828 164° South 351 404 11,800 -1,800 Descending Memphis Center
01:58PM 35.4222 -90.6731 120° Southeast 344 396 10,100 -900 Descending Memphis Center
01:59PM 35.3786 -90.5608 115° Southeast 358 412 10,000 -120 Descending Memphis Center
02:00PM 35.3286 -90.4539 120° Southeast 358 412 9,900  Descending Memphis Center
02:01PM 35.2703 -90.3622 128° Southeast 334 384 10,000 -240 Climbing Memphis Center
02:02PM 35.2158 -90.2833 130° Southeast 310 357 9,500 -480 Descending Memphis Center
02:03PM 35.1658 -90.2097 130° Southeast 293 337 9,100 -240 Descending Memphis Center
02:04PM 35.1178 -90.1389 130° Southeast 281 323 9,100 -660 Level Memphis Center
02:05PM 35.0572 -90.1111 159° South 227 261 7,800 -1,320 Descending Memphis Center
02:05PM 35.0333 -90.1167 191° South 228 262 7,400 -1,440 Descending KMEM
02:06PM 34.9667 -90.1000 168° South 240 276 5,900 -1,560 Descending KMEM
02:07PM 34.9000 -90.1000 180° South 220 253 4,300 -1,020 Descending KMEM
02:08PM 34.8500 -90.1000 180° South 217 250 4,000 -480 Descending KMEM
02:09PM 34.8297 -90.0636 124° Southeast 198 228 3,500 -660 Descending Memphis Center
02:10PM 34.8669 -89.9978 55° Northeast 172 198 2,900 -360 Descending Memphis Center
02:10PM 34.8833 -89.9833 36° Northeast 197 227 3,000 240 Climbing KMEM